Home > Weather > Cadiz > Past weeks

Flag for Spain Weather for the Past 2 Weeks in Cadiz, Cádiz, Spain

Now
57 °F

Clear.


Feels Like: 55 °F
Forecast: 57 / 74 °F
Wind: 9 mph from Northeast

Location: Rota Airport

Current Time: May 1, 2016 at 7:02:47 AM

Latest Report: May 1, 2016 at 6:00 AM


Visibility: 10 mi

Pressure: 30.09 "Hg

Humidity: 88%

Dew Point: 54 °F

Location of CadizLocation

Historic Weather in Cadiz — Graph

°F

Cadiz Temperature Yesterday

Maximum temperature yesterday: 72 °F (at 4:00 PM)
Minimum temperature yesterday: 63 °F (at 12:00 AM)
Average temperature yesterday: 66 °F

High & Low Weather Summary for the Past Weeks

 TemperatureHumidityPressure
High77 °F (Apr 18, 4:00 PM)100% (Apr 16, 5:00 AM)30.18 "Hg (Apr 16, 5:00 AM)
Low48 °F (Apr 18, 7:00 AM)47% (Apr 18, 4:00 PM)29.83 "Hg (Apr 19, 5:00 AM)
Average63 °F78%29.98 "Hg
* Reported Apr 16 5:00 AM — May 1 5:00 AM, Cadiz, Weather by CustomWeather, © 2016

Note: Actual official high and low records may vary slightly from our data, if they occured in-between our weather recording intervals... More about our weather records

Advertising

Cadiz Weather History for the Previous 24 Hours

Scroll right to see more
 ConditionsComfort  
Time TempWeatherWind HumidityBarometerVisibility
5:00 AM
Sun, May 1
57 °FPassing clouds.6 mph88%30.09 "HgN/A
4:00 AM57 °FClear.3 mph88%30.07 "Hg10 mi
3:00 AM59 °FClear.2 mph88%30.09 "Hg10 mi
2:00 AM59 °FClear.5 mph88%30.09 "Hg10 mi
1:00 AM63 °FClear.3 mph83%30.09 "Hg10 mi
12:00 AM64 °FClear.3 mph78%30.09 "Hg10 mi
11:00 PM
Sat, Apr 30
64 °FClear.8 mph78%30.09 "Hg10 mi
10:00 PM66 °FSunny.8 mph78%30.07 "Hg10 mi
9:00 PM66 °FPassing clouds.10 mph88%30.07 "HgN/A
8:00 PM68 °FPassing clouds.13 mph78%30.07 "HgN/A
7:00 PM68 °FPassing clouds.13 mph73%30.07 "HgN/A
6:00 PM70 °FPassing clouds.15 mph69%30.07 "HgN/A
5:00 PM70 °FPassing clouds.15 mph69%30.07 "HgN/A
4:00 PM72 °FPassing clouds.14 mph65%30.09 "HgN/A
3:00 PM70 °FPassing clouds.13 mph64%30.09 "HgN/A
2:00 PM70 °FPassing clouds.12 mph64%30.09 "HgN/A
12:00 PM68 °FPassing clouds.9 mph73%30.09 "HgN/A
11:00 AM68 °FPassing clouds.3 mph73%30.09 "HgN/A
10:00 AM66 °FPassing clouds.3 mph83%30.07 "HgN/A
9:00 AM64 °FScattered clouds.2 mph83%30.07 "HgN/A
8:00 AM63 °FPassing clouds.1 mph88%30.04 "HgN/A
7:00 AM63 °FPassing clouds.1 mph88%30.04 "HgN/A
Weather by CustomWeather, © 2016

See weather overviewHow to use our weather pages